Location: Naalehu
(19.0640°N, 155.5860°W)
Time: 20:58:52
(UTC-10:00)

OTV 5 (USA 277) - Visible Passes

Search period start: 19 April 2019 00:00
Search period end: 29 April 2019 00:00
Orbit: 310 x 325 km, 54.5° (Epoch: 16 April)

Date Brightness Start Highest point End Pass type
(mag) Time Alt. Az. Time Alt. Az. Time Alt. Az.
21 Apr ? 19:23:03 10° SSW 19:25:34 35° SE 19:28:06 10° NE visible
22 Apr ? 05:01:26 10° N 05:03:19 17° NE 05:05:12 10° E visible
22 Apr ? 19:37:41 10° SW 19:40:15 38° NW 19:42:49 10° NNE visible
23 Apr ? 05:15:26 10° NW 05:18:04 87° NE 05:20:42 10° SE visible
23 Apr ? 19:54:41 10° WNW 19:55:04 10° NW 19:55:27 10° NW visible
24 Apr ? 05:30:50 10° WNW 05:32:42 17° WSW 05:34:34 10° SSW visible
